EW9214 Weather Reports


Display with metric or nautical units.
time (UTC)temp
F
wind
direction
speed
MPH
gust
MPH
rain 1hr
in
rain 24hr
in
rain mn
in
humidity
%
barometer
mb
20260906210012 84 139 15.0 27.0 0.00 0.07 0.00 45 1002.3
20260906204508 84 146 18.0 31.0 0.00 0.07 0.00 45 1002.6
20260906203005 83 117 15.0 24.0 0.00 0.07 0.00 45 1002.8
20260906201502 83 139 12.0 26.0 0.00 0.07 0.00 44 1002.7
20260906200058 83 169 13.0 25.0 0.00 0.07 0.00 47 1002.9
20260906194601 83 130 11.0 20.0 0.00 0.07 0.00 49 1003.0
20260906193053 82 178 14.0 20.0 0.00 0.07 0.00 48 1003.0
20260906191551 82 159 11.0 21.0 0.00 0.07 0.00 49 1003.2
20260906190049 81 150 13.0 25.0 0.00 0.07 0.00 51 1003.3
20260906184547 81 101 15.0 19.0 0.00 0.07 0.00 49 1003.5
20260906183054 80 167 12.0 18.0 0.00 0.07 0.00 51 1003.7
20260906181548 79 128 10.0 19.0 0.00 0.07 0.00 51 1004.0
20260906180041 79 131 9.0 15.0 0.00 0.07 0.00 53 1004.2
20260906174541 78 155 10.0 18.0 0.00 0.07 0.00 54 1004.3
20260906173036 78 130 10.0 16.0 0.00 0.07 0.00 55 1004.5
20260906171532 77 128 11.0 15.0 0.00 0.07 0.00 57 1004.7
20260906170031 76 88 11.0 15.0 0.00 0.07 0.00 59 1005.0
20260906164528 75 121 10.0 14.0 0.00 0.07 0.00 62 1005.1
20260906163040 75 131 8.0 11.0 0.00 0.07 0.00 63 1005.1
20260906161525 74 165 5.0 13.0 0.00 0.07 0.00 63 1005.1
20260906160019 73 181 8.0 12.0 0.00 0.07 0.00 66 1005.2
20260906154515 72 158 7.0 14.0 0.00 0.07 0.00 67 1005.1
20260906153012 72 145 8.0 17.0 0.00 0.07 0.00 69 1005.0
20260906151510 71 174 8.0 14.0 0.00 0.07 0.00 71 1005.1
20260906150008 70 154 8.0 11.0 0.00 0.07 0.00 72 1005.1
20260906144505 69 161 9.0 14.0 0.00 0.07 0.00 74 1005.0
20260906143001 69 150 7.0 12.0 0.00 0.07 0.00 75 1005.0
20260906141601 68 140 4.0 8.0 0.00 0.07 0.00 77 1005.2
20260906140100 66 118 2.0 4.0 0.00 0.07 0.00 81 1005.3
20260906134559 63 118 2.0 4.0 0.00 0.07 0.00 89 1005.1
20260906133054 61 118 0.0 2.0 0.00 0.07 0.00 89 1004.9
20260906131548 60 118 0.0 1.0 0.00 0.07 0.00 89 1004.7
20260906124547 59 118 4.0 9.0 0.00 0.07 0.00 88 1004.6
20260906123047 59 103 5.0 7.0 0.00 0.07 0.00 89 1004.5
20260906121549 59 106 7.0 8.0 0.00 0.07 0.00 88 1004.3
20260906120044 59 80 7.0 8.0 0.00 0.07 0.00 88 1004.3
20260906114542 59 80 4.0 5.0 0.00 0.07 0.00 88 1004.1
20260906113041 60 80 4.0 7.0 0.00 0.07 0.00 87 1004.0
20260906111543 59 80 5.0 6.0 0.00 0.07 0.00 88 1004.1
20260906110041 60 80 7.0 10.0 0.00 0.07 0.00 88 1004.3
20260906104539 60 70 6.0 13.0 0.00 0.07 0.00 89 1004.3
20260906103038 60 71 9.0 10.0 0.00 0.07 0.00 88 1004.3
20260906101538 60 69 10.0 12.0 0.00 0.07 0.00 90 1004.4
20260906100041 60 30 11.0 13.0 0.00 0.07 0.00 89 1004.5
20260906094535 60 43 12.0 15.0 0.00 0.07 0.00 88 1004.5
20260906093046 60 319 2.0 4.0 0.00 0.07 0.00 87 1004.0
20260906091531 60 319 2.0 5.0 0.00 0.07 0.00 87 1003.9
20260906090029 60 319 2.0 4.0 0.00 0.07 0.00 86 1003.9
20260906084528 61 319 5.0 9.0 0.00 0.07 0.00 85 1003.6
20260906083025 62 196 3.0 4.0 0.00 0.07 0.00 82 1003.5
20260906081543 63 196 1.0 6.0 0.00 0.07 0.00 82 1003.5
20260906080022 63 196 5.0 7.0 0.00 0.07 0.00 82 1003.5
20260906074522 63 173 7.0 11.0 0.00 0.07 0.00 83 1003.6
20260906073035 62 188 8.0 9.0 0.00 0.07 0.00 83 1003.8
20260906071516 64 161 6.0 9.0 0.00 0.07 0.00 81 1004.0
20260906070016 63 143 4.0 7.0 0.00 0.07 0.00 80 1004.1
20260906064513 64 143 6.0 9.0 0.00 0.07 0.00 79 1004.0
20260906063012 64 135 5.0 9.0 0.00 0.07 0.00 80 1003.9
20260906061510 64 128 6.0 9.0 0.00 0.07 0.00 80 1003.8
20260906060007 64 115 5.0 8.0 0.00 0.07 0.00 80 1003.7
20260906054509 65 161 7.0 10.0 0.00 0.07 0.07 79 1003.7
20260906053005 66 167 7.0 11.0 0.00 0.07 0.07 78 1003.6
20260906051505 67 164 9.0 10.0 0.00 0.07 0.07 77 1003.6
20260906050007 67 165 7.0 9.0 0.00 0.07 0.07 78 1003.5
20260906044504 68 171 6.0 11.0 0.00 0.07 0.07 75 1003.5
20260906043004 70 146 5.0 8.0 0.00 0.07 0.07 74 1003.5
20260906041503 70 164 7.0 15.0 0.00 0.07 0.07 73 1003.3
20260906040004 71 160 11.0 15.0 0.00 0.07 0.07 72 1003.2
20260906034503 71 126 8.0 12.0 0.00 0.07 0.07 73 1003.3
20260906033002 71 126 9.0 13.0 0.00 0.07 0.07 71 1003.1
20260906031501 72 116 9.0 13.0 0.00 0.07 0.07 67 1002.9
20260906030002 73 124 8.0 11.0 0.00 0.07 0.07 67 1002.7
20260906024502 74 150 10.0 14.0 0.00 0.07 0.07 64 1002.5
20260906023130 74 165 11.0 15.0 0.00 0.07 0.07 64 1002.3
20260906021600 74 164 10.0 15.0 0.00 0.07 0.07 62 1002.2
20260906020100 75 161 10.0 16.0 0.00 0.07 0.07 59 1002.2
20260906014623 75 162 14.0 22.0 0.00 0.07 0.07 56 1002.1
20260906013100 74 171 16.0 22.0 0.00 0.07 0.07 56 1002.1
20260906011600 75 155 15.0 25.0 0.00 0.07 0.07 58 1002.1
20260906010057 76 160 20.0 27.0 0.00 0.07 0.07 56 1002.0
20260906004612 80 158 18.0 30.0 0.00 0.07 0.07 51 1002.0
20260906003057 81 110 7.0 10.0 0.00 0.07 0.07 43 1001.5
20260906001556 82 103 9.0 11.0 0.00 0.07 0.07 41 1001.3
20260906000106 85 109 10.0 12.0 0.01 0.07 0.07 35 1001.1
20260905234600 86 115 9.0 14.0 0.01 0.07 0.07 34 1001.1
20260905233057 83 117 10.0 17.0 0.01 0.07 0.07 37 1001.0
20260905231555 84 83 11.0 17.0 0.01 0.07 0.07 39 1001.0
20260905230053 81 89 14.0 21.0 0.00 0.06 0.06 41 1001.0
20260905224604 80 98 16.0 24.0 0.00 0.06 0.06 45 1001.0
20260905223052 79 57 10.0 15.0 0.00 0.06 0.06 51 1000.9
20260905221553 79 47 11.0 22.0 0.06 0.06 0.06 52 1000.8
20260905220053 78 40 12.0 33.0 0.06 0.06 0.06 54 1000.6
20260905214551 77 19 20.0 26.0 0.06 0.06 0.06 50 1000.3
20260905213048 85 306 5.0 10.0 0.06 0.06 0.06 41 1000.7
20260905211547 86 158 8.0 14.0 0.00 0.00 0.00 34 1000.8